Change the Weather History Date:

Monday, September 10, 2012

  Actual Average (KTTN) Record (KTTN)
Temperature  
Mean Temperature 64 °F 69 °F  
Max Temperature 72 °F 78 °F 101 °F (1983)
Min Temperature 54 °F 59 °F 45 °F (1917)
Degree Days  
Heating Degree Days 2 1  
Month to date heating degree days 3  
Since 1 July heating degree days 6  
Cooling Degree Days 0 4  
Month to date cooling degree days 54  
Year to date cooling degree days 910  
Growing Degree Days 14 (Base 50)    
Moisture  
Dew Point 47 °F    
Average Humidity 61    
Maximum Humidity 87    
Minimum Humidity 38    
Precipitation  
Precipitation 0.00 in 0.12 in 1.61 in (1909)
Month to date precipitation 1.17  
Year to date precipitation 32.15  
Sea Level Pressure  
Sea Level Pressure 30.02 in    
Wind  
Wind Speed 6 mph (NNW)    
Max Wind Speed 15 mph    
Max Gust Speed 23 mph    
Visibility 10 miles    
Events      
T = Trace of Precipitation, MM = Missing Value Source: NWS Daily Summary

Daily Weather History Graph

Daily Weather History Graph

Search for Another Location

Airport or City:

Trip Planner

Search our weather history database for the weather conditions in past years. The results will help you decide how hot, cold, wet, or windy it might be!

Date:

Astronomy

Sep. 10, 2012 Rise Set
Actual Time 6:36 AM EDT 7:16 PM EDT
Civil Twilight 6:09 AM EDT 7:44 PM EDT
Nautical Twilight 5:36 AM EDT 8:16 PM EDT
Astronomical Twilight 5:03 AM EDT 8:50 PM EDT
Moon 12:55 AM EDT (9/10) 3:45 PM EDT (9/10)
Length of Visible Light 13h 34m
Length of Day
12h 39m
Waning Crescent, 30% of the Moon is Illuminated
Sep 10
Waning Crescent
Sep 15
New
Sep 22
First Quarter
Sep 29
Full
Oct 8
Last Quarter

Hourly Weather History & Observations

Time (EDT) Temp. Dew Point Humidity Pressure Visibility Wind Dir Wind Speed Gust Speed Precip Events Conditions
12:54 AM 59.0 °F 53.1 °F 81% 29.92 in 10.0 mi Calm Calm - N/A   Clear
1:54 AM 57.9 °F 53.1 °F 84% 29.93 in 10.0 mi North 4.6 mph - N/A   Clear
2:54 AM 57.9 °F 53.1 °F 84% 29.92 in 10.0 mi North 4.6 mph - N/A   Clear
3:54 AM 55.9 °F 52.0 °F 87% 29.93 in 10.0 mi NNW 5.8 mph - N/A   Clear
4:54 AM 57.0 °F 50.0 °F 77% 29.94 in 10.0 mi NNW 6.9 mph - N/A   Clear
5:54 AM 55.0 °F 48.9 °F 80% 29.96 in 10.0 mi NNW 4.6 mph - N/A   Clear
6:54 AM 55.0 °F 48.0 °F 77% 29.99 in 10.0 mi Variable 4.6 mph - N/A   Clear
7:54 AM 57.0 °F 48.0 °F 72% 30.01 in 10.0 mi NNW 6.9 mph - N/A   Clear
8:54 AM 61.0 °F 48.9 °F 64% 30.03 in 10.0 mi NNW 10.4 mph - N/A   Clear
9:54 AM 64.9 °F 50.0 °F 58% 30.04 in 10.0 mi North 12.7 mph 18.4 mph N/A   Clear
10:54 AM 68.0 °F 50.0 °F 52% 30.04 in 10.0 mi NNW 10.4 mph 16.1 mph N/A   Clear
11:54 AM 69.1 °F 51.1 °F 53% 30.03 in 10.0 mi Variable 6.9 mph 16.1 mph N/A   Scattered Clouds
12:54 PM 71.1 °F 48.9 °F 45% 30.03 in 10.0 mi NW 9.2 mph 18.4 mph N/A   Partly Cloudy
1:54 PM 69.1 °F 48.0 °F 47% 30.02 in 10.0 mi NNW 9.2 mph 19.6 mph N/A   Mostly Cloudy
2:54 PM 72.0 °F 45.0 °F 38% 30.01 in 10.0 mi North 12.7 mph 20.7 mph N/A   Partly Cloudy
3:54 PM 72.0 °F 46.0 °F 40% 30.01 in 10.0 mi NNW 15.0 mph 23.0 mph N/A   Scattered Clouds
4:54 PM 70.0 °F 44.1 °F 39% 30.03 in 10.0 mi NW 11.5 mph 19.6 mph N/A   Partly Cloudy
5:54 PM 68.0 °F 44.1 °F 42% 30.05 in 10.0 mi NNW 11.5 mph 19.6 mph N/A   Clear
6:54 PM 64.9 °F 44.1 °F 47% 30.06 in 10.0 mi NNW 4.6 mph - N/A   Clear
7:54 PM 61.0 °F 44.1 °F 54% 30.08 in 10.0 mi NNW 4.6 mph - N/A   Clear
8:54 PM 59.0 °F 43.0 °F 55% 30.12 in 10.0 mi Calm Calm - N/A   Clear
9:54 PM 57.9 °F 42.1 °F 56% 30.13 in 10.0 mi North 4.6 mph - N/A   Clear
10:54 PM 55.9 °F 42.1 °F 60% 30.14 in 10.0 mi North 4.6 mph - N/A   Clear
11:54 PM 54.0 °F 42.1 °F 64% 30.16 in 10.0 mi Calm Calm - N/A   Clear